Lapse_Rate
6.9 6.7 6.4 6.2 6.1 5.8 5.8 5.6 5.5 5.3 5.2 5.1 5.2 5.3 5.3 5.4 5.3 5.2 5.2 5.3 5.4 5.4 5.4 5.4 5.4 5.4 5.5 5.5 5.4 5.3 5.4 5.4 5.4 5.7 5.7 5.9 6.1 6.2 6.3 6.3 6.3 6.3 6.4
6.7 6.7 6.3 6.1 6.0 5.8 5.8 5.6 5.5 5.4 5.2 5.2 5.2 5.2 5.2 5.3 5.3 5.3 5.3 5.4 5.5 5.5 5.5 5.4 5.3 5.4 5.5 5.6 5.7 5.6 5.5 5.5 5.6 5.8 5.8 6.0 6.0 6.0 6.1 6.2 6.2 6.3 6.3
6.8 6.6 6.4 6.2 6.1 6.0 5.9 5.9 5.7 5.5 5.4 5.4 5.4 5.4 5.5 5.5 5.5 5.5 5.4 5.5 5.6 5.6 5.4 5.4 5.4 5.5 5.6 5.7 5.7 5.6 5.6 5.6 5.7 5.9 5.9 6.1 6.1 6.2 6.2 6.3 6.3 6.4 6.4
7.0 6.7 6.4 6.2 6.2 6.2 6.1 6.0 6.0 5.7 5.5 5.5 5.5 5.6 5.7 5.7 5.7 5.7 5.6 5.5 5.6 5.6 5.6 5.6 5.6 5.7 5.7 5.7 5.7 5.7 5.7 5.7 5.8 6.0 6.1 6.4 6.4 6.3 6.3 6.4 6.5 6.6 6.6
6.9 6.8 6.6 6.3 6.2 6.2 6.2 6.2 6.0 6.0 5.8 5.7 5.6 5.6 5.7 5.7 5.7 5.7 5.7 5.6 5.5 5.5 5.6 5.6 5.7 5.7 5.8 5.8 5.8 5.8 5.9 5.9 5.9 6.0 6.2 6.2 6.2 6.3 6.5 6.6 6.7 6.6 6.7
7.0 7.0 6.8 6.5 6.3 6.2 6.1 6.2 6.1 6.0 5.9 5.6 5.6 5.6 5.5 5.6 5.6 5.7 5.7 5.6 5.7 5.7 5.7 5.7 5.8 5.8 5.8 5.9 5.9 5.9 5.9 5.9 5.9 6.1 6.1 6.3 6.3 6.4 6.5 6.5 6.6 6.6 6.5
7.2 7.0 6.8 6.6 6.4 6.2 6.1 6.0 6.1 6.1 5.9 5.7 5.4 5.5 5.5 5.5 5.5 5.6 5.6 5.6 5.7 5.7 5.7 5.8 5.8 5.8 5.9 5.9 5.9 6.0 6.0 6.1 6.1 6.3 6.2 6.3 6.4 6.3 6.4 6.5 6.6 6.6 6.7
7.3 7.1 6.8 6.7 6.5 6.3 6.2 6.2 6.0 6.0 5.9 6.0 5.7 5.5 5.5 5.5 5.5 5.5 5.5 5.6 5.6 5.7 5.8 5.8 5.9 5.9 6.0 6.0 6.1 6.1 6.2 6.3 6.3 6.4 6.4 6.5 6.5 6.3 6.4 6.5 6.6 6.5 6.6
6.9 6.9 6.7 6.7 6.6 6.4 6.3 6.1 6.0 5.9 5.8 5.9 6.0 5.9 5.7 5.6 5.6 5.6 5.6 5.6 5.7 5.9 5.9 6.0 6.0 6.0 6.1 6.1 6.1 6.2 6.3 6.4 6.4 6.4 6.4 6.5 6.6 6.4 6.5 6.6 6.6 6.6 6.6
6.7 6.8 6.6 6.6 6.5 6.4 6.3 6.2 6.1 6.1 6.1 6.0 6.0 6.0 6.0 5.9 5.8 5.7 5.8 5.8 5.9 6.0 6.1 6.1 6.1 6.2 6.2 6.2 6.3 6.3 6.4 6.4 6.4 6.4 6.4 6.5 6.6 6.7 6.7 6.8 6.8 6.8 6.7
7.0 7.0 6.7 6.7 6.6 6.5 6.5 6.5 6.4 6.3 6.2 6.1 6.1 6.1 6.2 6.1 6.0 6.0 6.0 6.1 6.1 6.2 6.1 6.2 6.2 6.3 6.4 6.3 6.3 6.3 6.3 6.3 6.3 6.5 6.4 6.4 6.5 6.6 6.7 6.8 6.9 6.9 6.9
6.9 6.7 6.8 6.5 6.5 6.5 6.6 6.4 6.4 6.2 6.2 6.2 6.2 6.1 6.2 6.2 6.2 6.2 6.2 6.3 6.3 6.3 6.2 6.2 6.2 6.4 6.4 6.3 6.3 6.3 6.2 6.1 6.2 6.6 6.3 6.4 6.5 6.5 6.6 6.7 6.9 6.9 7.0
6.5 6.6 6.4 6.4 6.4 6.3 6.2 6.2 6.2 6.3 6.3 6.3 6.3 6.2 6.2 6.4 6.5 6.4 6.3 6.4 6.4 6.5 6.5 6.4 6.3 6.4 6.6 6.5 6.3 6.3 6.3 6.2 6.2 6.6 6.4 6.5 6.6 6.6 6.6 6.7 6.8 6.9 7.0
6.5 6.4 6.3 6.3 6.2 6.2 6.2 6.2 6.2 6.3 6.1 6.4 6.4 6.5 6.4 6.4 6.6 6.6 6.6 6.4 6.6 6.6 6.6 6.5 6.4 6.5 6.5 6.5 6.5 6.5 6.3 6.2 6.1 6.7 6.4 6.6 6.6 6.8 6.8 6.8 6.8 6.8 6.8
6.4 6.2 6.2 6.2 6.2 6.1 6.1 6.2 6.3 6.3 6.5 6.4 6.6 6.6 6.5 6.4 6.3 6.5 6.8 6.7 6.7 6.7 6.7 6.8 6.7 6.7 6.6 6.4 6.4 6.4 6.4 6.4 6.1 6.7 6.7 6.5 6.7 6.7 6.7 6.7 6.6 6.5 6.4
6.2 6.2 6.1 6.1 6.2 6.1 6.2 6.2 6.2 6.3 6.4 6.3 6.4 6.4 6.3 6.4 6.4 6.4 6.5 6.9 7.0 6.7 7.0 6.8 6.9 6.9 6.7 6.7 6.5 6.4 6.4 6.4 6.2 6.3 7.0 6.6 6.7 6.6 6.5 6.6 6.5 6.4 6.3
6.2 6.0 6.1 6.1 6.1 6.1 6.1 6.2 6.1 6.1 6.2 6.4 6.2 6.3 6.2 6.2 6.4 6.4 6.5 6.4 6.7 6.5 6.6 6.9 6.8 6.9 6.8 6.7 6.6 6.5 6.4 6.3 6.3 6.1 6.7 6.9 6.6 6.7 6.5 6.5 6.5 6.4 6.3
6.0 5.9 6.0 6.3 6.0 6.1 6.2 6.2 6.3 6.2 6.3 6.3 6.4 6.4 6.5 6.4 6.2 6.2 6.4 6.3 6.4 6.5 6.3 6.6 6.8 6.7 6.8 6.8 6.6 6.6 6.6 6.4 6.5 6.3 6.1 6.7 6.7 6.6 6.6 6.4 6.4 6.4 6.3
6.4 6.3 6.1 5.9 6.3 6.5 6.4 6.4 6.4 6.3 6.3 6.3 6.2 6.2 6.4 6.4 6.3 6.1 6.1 6.1 6.2 6.3 6.4 6.4 6.5 6.6 6.6 6.6 6.7 6.7 6.8 6.6 6.5 6.5 6.4 6.4 6.8 6.8 6.6 6.5 6.4 6.4 6.3
6.4 6.5 6.4 6.4 6.4 6.4 6.5 6.3 6.4 6.3 6.4 6.3 6.1 6.0 6.0 6.0 6.0 6.1 6.2 6.2 5.9 5.9 6.2 6.3 6.3 6.4 6.4 6.5 6.7 6.8 6.9 6.7 6.7 6.6 6.5 6.6 6.5 6.6 6.8 6.6 6.4 6.5 6.4
7.0 7.2 7.1 7.0 6.9 6.6 6.4 6.2 6.2 6.5 6.6 6.3 6.2 6.1 5.9 5.9 6.1 6.0 6.0 6.1 6.0 5.7 5.8 5.7 5.8 6.1 6.3 6.2 6.2 6.5 6.6 6.6 6.6 6.8 6.7 6.6 6.7 6.5 6.4 6.9 6.5 6.6 6.5
6.5 6.4 6.7 6.8 6.7 6.6 6.5 6.5 6.1 5.8 6.2 6.3 6.2 6.2 6.1 5.8 5.9 6.1 6.0 5.9 6.0 6.0 6.0 5.8 5.8 5.9 6.0 6.2 6.2 6.4 6.2 6.5 6.7 6.8 6.7 6.8 6.7 6.7 6.5 6.5 6.7 6.6 6.6
6.5 6.6 6.6 6.7 6.7 6.6 6.6 6.6 6.4 6.2 5.8 6.0 6.6 6.4 6.1 5.9 5.6 5.6 5.7 5.9 5.9 5.9 6.1 6.1 6.1 6.4 6.4 6.4 6.4 6.5 6.4 6.6 6.8 6.8 6.7 6.6 6.6 6.7 6.8 6.7 6.6 6.5 6.7
6.2 6.4 6.5 6.6 6.5 6.4 6.4 6.5 6.5 6.4 6.2 5.7 5.9 6.3 6.4 6.3 6.2 5.9 5.4 5.3 5.6 6.0 5.9 6.0 6.0 6.1 6.2 6.4 6.5 6.7 6.7 6.6 6.5 6.7 6.8 6.6 6.5 6.5 6.5 6.5 6.3 6.2 6.1
6.1 6.2 6.3 6.3 6.2 6.2 6.3 6.4 6.4 6.3 6.3 6.1 5.7 5.7 5.9 6.2 6.6 6.5 6.2 5.7 5.6 5.7 6.1 6.1 6.0 6.2 6.2 6.3 6.4 6.6 6.6 6.5 6.5 6.5 6.4 6.7 6.2 5.9 6.2 6.1 6.0 6.3 5.8
5.8 5.9 5.9 6.0 6.1 6.2 6.2 6.2 6.1 6.1 6.1 6.1 6.0 5.8 5.8 6.0 6.0 6.2 6.4 6.5 6.3 6.0 5.9 6.1 6.2 6.1 6.2 6.3 6.4 6.6 6.7 6.8 6.5 6.4 6.2 6.2 6.2 6.0 6.0 5.8 5.7 5.7 5.5
Wind_Speed
10 14 17 17 20 19 18 16 15 14 15 17 17 14 11 10 10 9 8 7 7 8 13 16 15 15 14 14 14 14 13 13 12 12 13 14 14 13 13 16 13 13 12
16 17 18 19 22 18 17 16 16 14 17 17 15 15 9 9 9 8 7 7 8 9 10 15 15 14 14 14 13 13 11 10 10 11 15 16 12 12 13 13 14 12 11
16 18 18 19 19 17 17 17 17 14 18 16 14 13 8 8 8 8 7 9 10 10 14 16 15 14 14 13 13 11 9 5 4 4 5 13 12 10 10 10 9 10 10
17 18 17 19 19 18 19 19 16 15 15 15 13 12 8 8 9 11 16 17 14 16 17 15 14 13 13 12 11 10 7 2 4 5 4 10 15 13 9 5 7 9 8
15 18 20 18 18 20 19 18 16 15 15 15 13 11 10 10 11 13 16 17 16 16 16 14 13 13 12 11 10 8 4 3 6 7 17 17 16 14 17 18 8 10 12
12 23 22 19 18 20 19 17 16 15 17 14 13 12 11 11 12 13 14 14 14 13 14 13 12 11 11 10 9 6 3 4 8 7 16 15 15 12 16 19 21 21 17
16 20 18 20 18 19 17 16 15 15 17 15 12 12 11 11 12 12 12 12 12 12 12 11 11 10 9 8 7 4 2 3 7 10 16 15 11 11 12 16 17 17 17
16 17 16 19 19 19 15 13 14 17 17 16 13 12 12 11 10 11 11 11 11 11 11 11 10 9 7 6 5 3 3 5 10 12 15 14 9 12 12 13 13 13 13
15 15 14 14 15 16 17 12 10 17 17 19 15 12 12 12 11 11 10 10 10 10 11 11 9 8 6 5 4 2 3 5 9 8 13 13 12 13 12 13 13 11 12
8 13 10 14 14 13 11 12 10 11 14 18 17 17 14 11 9 10 9 9 9 10 9 9 8 7 6 5 4 1 1 4 4 3 15 15 13 13 11 12 12 10 10
4 11 11 13 15 16 16 13 12 11 11 14 16 17 17 14 12 12 10 11 7 9 11 10 8 7 7 6 4 3 4 7 4 12 14 16 11 10 9 10 10 9 10
4 6 10 8 9 14 14 18 14 13 13 13 14 17 14 15 17 14 16 12 6 7 10 9 8 8 9 9 7 5 7 5 1 15 15 14 10 9 9 10 10 10 9
6 4 6 6 11 10 9 13 13 13 14 15 17 16 17 15 16 14 15 11 10 8 8 9 7 8 11 12 12 11 5 2 3 16 14 14 11 9 8 9 9 9 9
7 6 4 5 6 8 10 9 11 11 13 14 16 20 14 10 12 12 11 15 15 15 12 14 13 14 14 5 6 6 7 5 4 15 16 15 12 10 9 9 9 9 8
9 7 4 5 3 5 6 8 6 7 10 11 17 21 19 9 5 12 11 13 14 16 14 12 12 12 8 7 9 6 8 8 6 15 15 15 13 12 10 10 9 9 8
7 9 9 7 5 2 3 3 6 8 11 10 11 11 11 10 9 7 6 11 11 12 17 13 9 6 7 8 6 7 7 7 7 17 18 16 14 13 12 10 10 9 8
8 10 11 11 8 6 6 5 3 4 4 9 10 14 12 12 9 7 5 4 10 15 10 12 9 11 5 7 6 7 6 7 7 11 16 18 15 13 13 11 11 11 9
4 2 11 12 14 13 10 7 4 5 6 5 10 13 17 16 17 9 4 4 12 12 9 4 4 4 4 5 4 5 4 6 9 9 15 16 18 14 12 12 12 12 11
5 4 5 3 8 13 12 9 9 11 7 9 10 8 14 18 17 12 6 8 15 9 6 4 3 4 3 4 5 4 4 4 5 7 10 16 20 20 17 13 13 11 11
3 6 8 6 7 6 4 6 7 5 7 12 12 11 11 13 16 12 8 8 11 7 5 4 5 4 4 4 4 4 4 3 5 4 6 10 14 18 20 20 16 13 11
7 6 5 5 5 2 3 3 4 7 7 5 6 15 15 15 16 12 6 6 7 6 8 7 5 6 5 5 3 0 1 4 4 4 7 7 10 15 15 20 19 16 13
6 6 6 5 5 4 2 3 2 3 6 7 5 10 16 11 10 12 7 7 9 6 6 9 9 5 4 5 4 3 2 3 4 5 4 5 7 14 13 18 19 19 20
8 8 7 8 7 6 6 4 3 3 1 2 4 5 10 17 15 14 10 9 7 6 7 7 8 11 8 4 9 5 3 5 2 3 7 5 6 5 9 14 19 18 20
4 5 5 5 4 5 6 4 4 3 4 4 5 7 7 14 13 17 15 7 8 8 8 8 6 7 6 9 1 8 2 4 4 2 2 4 5 7 8 8 12 16 17
3 2 3 6 6 2 2 4 3 5 4 4 4 5 6 8 12 13 13 9 6 7 9 7 6 8 10 8 9 3 3 3 3 3 3 4 3 4 6 6 11 13 18
4 3 4 5 5 6 4 4 4 6 6 5 5 5 4 4 5 9 9 10 10 4 6 8 7 9 10 9 8 6 6 8 6 4 2 2 5 3 2 4 6 11 18
Wind_Direction
121 135 130 129 130 135 134 131 129 124 122 118 114 103 95 91 83 77 78 87 89 94 100 103 93 89 90 88 88 86 84 86 92 96 90 79 73 69 58 42 91 71 65
126 140 134 133 132 135 134 134 125 121 118 106 102 98 99 93 84 76 78 99 103 100 104 103 93 89 87 86 85 87 89 99 109 112 113 93 70 61 55 62 71 69 64
132 134 139 134 131 132 129 125 120 124 112 110 104 104 101 97 93 87 51 114 112 92 106 99 92 88 87 86 86 87 86 81 94 141 174 100 76 59 59 63 67 63 60
127 147 141 136 134 129 126 124 125 124 114 110 106 108 109 108 106 90 82 96 101 104 100 96 95 94 93 91 87 85 86 67 10 347 75 82 66 56 55 63 69 60 51
133 149 134 136 134 132 130 129 130 128 122 115 112 114 115 117 115 95 89 91 98 102 99 97 99 100 98 93 88 84 76 21 343 20 71 63 73 61 63 63 70 72 61
142 120 135 129 133 136 134 135 139 145 130 120 119 121 121 123 120 101 98 99 99 100 99 101 106 104 100 92 84 72 32 353 326 100 98 88 80 73 72 68 70 69 70
110 121 130 134 134 134 139 148 158 140 131 126 128 127 126 127 125 114 112 110 110 106 108 109 111 109 101 94 87 65 354 306 307 91 90 84 85 84 73 72 72 62 58
123 132 131 141 149 146 145 161 158 139 141 139 137 134 130 129 128 126 121 119 118 118 118 117 115 111 105 99 89 54 347 341 347 83 103 90 90 98 86 77 67 62 64
123 124 136 135 140 144 141 137 155 152 155 141 143 137 131 129 134 137 132 129 128 130 128 124 121 116 109 103 94 57 349 338 349 59 94 92 107 100 89 82 76 70 70
123 128 142 142 147 142 139 143 144 148 152 148 153 145 137 137 141 139 140 143 148 139 137 133 126 119 111 111 118 144 287 326 70 108 93 99 112 103 95 89 84 77 72
152 139 157 164 171 169 154 162 161 163 165 166 165 155 150 160 168 162 181 158 173 169 156 144 140 135 134 133 145 196 249 281 152 98 107 110 111 105 101 99 96 94 87
184 173 162 169 157 162 165 153 170 176 181 184 167 168 169 194 179 181 159 164 172 156 150 156 160 166 173 166 167 211 244 258 11 120 124 123 124 115 109 103 106 105 99
260 302 169 157 153 157 136 157 176 168 186 184 175 183 205 215 171 142 154 166 176 181 171 171 183 202 218 214 178 208 220 47 213 130 134 132 136 129 122 120 119 116 110
207 263 310 148 150 161 165 164 180 176 195 178 185 190 203 206 167 167 165 175 188 189 199 190 190 212 232 212 193 218 151 223 256 133 143 142 147 144 143 140 135 129 123
167 187 251 293 188 178 172 178 207 184 179 202 187 197 204 183 177 174 173 181 189 180 197 197 197 198 178 211 234 210 172 200 222 139 149 148 147 154 158 155 153 144 137
173 177 177 205 250 197 284 217 195 196 182 193 204 207 219 192 189 199 193 187 198 185 201 197 183 168 180 199 210 220 203 206 201 138 149 152 156 162 167 168 165 159 153
193 185 176 179 191 194 227 265 276 286 221 184 202 194 213 217 202 205 214 162 193 208 226 197 189 182 177 186 194 206 213 205 191 154 156 158 161 170 172 180 178 173 168
262 225 185 184 180 187 203 212 243 269 292 291 192 198 198 212 212 210 197 179 189 204 232 194 180 175 178 178 183 205 195 211 193 195 157 161 165 167 178 185 185 185 176
219 276 296 240 188 191 201 184 177 190 232 270 287 244 204 199 208 210 204 204 191 198 216 190 185 158 176 183 191 205 193 201 209 200 183 165 176 178 182 182 179 187 183
242 221 230 226 224 249 223 185 179 195 196 201 231 268 242 205 198 198 205 210 202 195 203 184 169 176 167 186 189 182 189 206 206 211 192 185 178 171 181 171 167 169 180
343 330 323 320 286 249 242 247 184 182 201 213 191 227 258 220 210 204 201 201 210 206 204 184 172 178 198 164 113 25 267 219 234 224 200 191 181 184 166 170 173 177 183
315 330 335 307 303 288 253 257 260 190 196 202 204 215 249 272 257 212 212 220 219 213 209 194 191 185 181 173 156 111 222 310 260 226 211 195 190 180 182 177 183 186 191
35 15 356 344 338 330 330 331 325 326 21 158 202 216 226 237 260 274 248 214 221 224 215 213 200 197 200 206 179 153 175 216 159 213 220 205 185 178 183 189 188 186 187
54 12 342 316 297 292 305 306 292 268 276 241 200 210 212 214 213 230 247 249 221 218 227 225 212 208 181 197 240 227 219 148 182 193 256 212 198 189 187 190 188 190 177
98 309 327 325 319 310 318 302 295 279 272 282 296 270 214 202 208 217 226 243 240 227 236 207 216 202 211 198 206 183 206 209 228 140 186 224 222 200 182 184 176 184 167
60 17 340 331 335 346 347 306 268 264 276 291 299 295 263 241 215 203 205 220 234 239 239 236 218 214 207 221 211 210 208 207 212 194 169 201 214 238 154 171 173 173 170